Regional Weather Roundup
Issued by NWS

Home | Current Version | Previous Version | Text Only | Print | Product List | Glossary On
Versions: 1 2 3 4 5 6 7 8 9 10 11 12 13 14 15 16 17 18 19 20 21 22 23 24 25 26 27 28 29 30 31 32 33 34 35 36 37 38 39 40 41 42 43 44 45 46 47 48 49 50
000
ASUS45 KREV 292110
RWRNV
NEVADA REGIONAL WEATHER ROUNDUP
NATIONAL WEATHER SERVICE RENO NV
200 PM PDT THU SEP 29 2016

NOTE: "FAIR" INDICATES FEW OR NO CLOUDS BELOW 12,000 FEET WITH NO
SIGNIFICANT WEATHER AND/OR OBSTRUCTIONS TO VISIBILITY.

NVZ001-003-004-292200-
WESTERN NEVADA

CITY           SKY/WX    TMP DP  RH WIND       PRES   REMARKS
RENO           FAIR      83  30  14 VRB3      30.12F
CARSON CITY    FAIR      81  30  16 SW10G21   30.16F
MINDEN         FAIR      81  32  17 W12G17    30.15F
PYRAMID LAKE     N/A     75 N/A N/A N10         N/A
FALLON         FAIR      85  38  18 SW8G18    30.09F
LOVELOCK       FAIR      83  35  18 SW10G17   30.09F
HAWTHORNE        N/A    N/A N/A N/A MISG        N/A
$$

NVZ002-CAZ072-073-292200-
NORTHERN AND CENTRAL SIERRA

CITY           SKY/WX    TMP DP  RH WIND       PRES   REMARKS
S. LAKE TAHOE  FAIR      71  33  24 VRB7      30.26F
TRUCKEE        MOSUNNY   68  30  24 SW13G22   30.25F
SQUAW VLY 8000 NOT AVBL
SUSANVILLE     SUNNY     82  28  14 SW16      30.11F
MAMMOTH LAKES  FAIR      73  32  22 SE10G18   30.31F
BRIDGEPORT       N/A     74  29  19 S12G21    30.26F
$$

NVZ030-031-036-292200-
NORTHERN NEVADA

CITY           SKY/WX    TMP DP  RH WIND       PRES   REMARKS
ELKO           FAIR      80  36  20 VRB6      30.15F
WINNEMUCCA     FAIR      85  34  16 W14G20    30.09F
WENDOVER       FAIR     N/A N/A N/A MISG        N/A
$$

NVZ035-037-292200-
CENTRAL NEVADA

CITY           SKY/WX    TMP DP  RH WIND       PRES   REMARKS
ELY            PTSUNNY   66  41  40 W16       30.30F
EUREKA           N/A     73  40  30 N13       30.23F
$$

NVZ013-014-292200-
SOUTH CENTRAL NEVADA

CITY           SKY/WX    TMP DP  RH WIND       PRES   REMARKS
TONOPAH        FAIR      77  39  25 S12       30.23F
$$

NVZ017-020-022-292200-
SOUTHERN NEVADA

CITY           SKY/WX    TMP DP  RH WIND       PRES   REMARKS
LAS VEGAS      FAIR      87  45  23 SE9       30.08F
N. LAS VEGAS   FAIR      87  48  25 MISG      30.07F
NELLIS AFB     FAIR      88  51  27 E10       30.06F
HENDERSON      FAIR      86  51  29 VRB6      30.11F
MERCURY        FAIR      85  44  23 SW13      30.13F
$$



USA.gov is the U.S. government's official web portal to all federal, state and local government web resources and services.